Погода в Лиде

Погода в Лиде : погода сейчас, прогноз погоды и архив. Всё, что Вы хотите узнать о погоде в Лиде!

Хотите узнать прогноз погоды в Лиде? Тогда Вам сюда: Погода в Лиде

Поиск расширенной информации на нашем сайте:

Полезная информация:

Другие новости

Новости СМИ2

Главная страница сайта

Новости сайта

03.07.2017

Напоминаем, что на нашем специализированном сайте Метеоцентр.Азия вы можете получить высокодетализированные автоматические прогнозы погоды по пунктам России, СНГ и мира в авиационном формате (включающие направление и скорость ветра, видимость, явления погоды, количество и форму облачности, нижнюю и верхнюю границу облачности).

Рекомендуем:

Погода в Лиде - сегодня

Время (UTC), дата Ветер
(°,м/с) 
Видим.   Явления Облачность Т
(°С)
Тd
(°С)
f(%) Тe
(°С)
Pmin
(гПа)
dP
(гПа)
Po
(мм)
O2
(г/м3)
Тmin Tmax R s Состояние
почвы
06 22.03.19 300 (СЗ) 4{10}  н/о  {дождь}  3/3 300 м средняя 
[St|Ac trans]
+7.7 +5.3 85 +6  1024.3  1.8  754  295  +7.5    0.0     
09 22.03.19 320 (СЗ) 6-10{13}  н/о    1/1 1000 м 
[Cu hum]
+8.3 -3.3 44 +6  1027.1  2.7  756  296           
12 22.03.19 330 (СЗ) 6-14{14}  н/о    6/0 средняя, верхняя 
[Ac trans|Ci fib]
+9 -6.7 32 +7  1028.1  1.1  757  296           
15 22.03.19 330 (СЗ) 5-10{14}  н/о    1/0 средняя 
[Ac trans]
+8.3 -8.6 29 +7  1028.9  0.7  757  297           
18 22.03.19 330 (СЗ) 3{12}  н/о    ясно 
+5.5 -7 40 +4  1029.4  0.4  757  300    +9.4       
21 22.03.19 320 (СЗ) н/о    ясно 
+2.7 -6.2 52 +2  1030.2  0.5  758  303           
00 23.03.19 340 (С) н/о    4/0 верхняя 
[Ci fib]
+1.2 -6.3 57 +1  1030.9  0.6  758  305           
03 23.03.19 330 (СЗ) н/о    4/0 верхняя 
[Ci fib]
-0.5 -7 61 1030.7  -0.4  758  307           
06 23.03.19 тихо ()   н/о    ясно 
-0.1 -4.2 74 -0  1031.1  0.4  758  306  -2.6         
09 23.03.19 250 (З) н/о    1/0 верхняя 
[Ci fib]
+6.8 -7.5 35 +8  1029.1  -1.3  757  298           
12 23.03.19 200 (Ю) н/о    1/0 верхняя 
[Ci fib]
+11 -9.4 23 +11  1026.2  -2.6  755  293           
15 23.03.19 220 (ЮЗ) н/о    6/0 верхняя 
[Ci fib]
+11.7 -9 23 +11  1023.4  -2.7  753  292           
18 23.03.19 200 (Ю) н/о    3/0 средняя 
[Ac trans]
+8 -7.1 33 +9  1022.2  -1.5  752  295    +12.5       
21 23.03.19 180 (Ю) н/о    4/0 средняя 
[Ac trans]
+6.4 -4.6 45 +7  1020.3  -2  751  296           
00 24.03.19 300 (СЗ) н/о    9/0 средняя 
[Ac trans]
+8 +1.7 64 +8  1018.8  -1.3  750  293           
03 24.03.19 290 (З) 3{10}  н/о    4/0 средняя 
[Ac trans]
+4.7 +1.9 82 +4  1019.2  0.3  750  297           
06 24.03.19 280 (З) н/о    3/0 верхняя 
[Ci fib]
+3 +0.6 84 +2  1020.2  0.7  750  299  +2.2         
09 24.03.19 300 (СЗ) н/о    3/1 1000 м верхняя 
[Cu hum|Ci fib]
+7 -0.5 59 +6  1019.6  -0.3  750  295           
12 24.03.19 330 (СЗ) 4{11}  н/о    8/4 600 м верхняя 
[Cu hum|Ci fib]
+9.2 -3 42 +8  1018.4  -1  749  292           
15 24.03.19 290 (З) 4{10}  н/о    9/0 верхняя 
[Ci sp]
+8 -3.3 45 +7  1018  -0.5  749  294           
18 24.03.19 300 (СЗ) н/о    8/0 верхняя 
[Ci sp]
+5.3 -2.9 55 +6  1017.3  -0.8  749  296    +9.4       
21 24.03.19 310 (СЗ) н/о    ясно 
+3.2 -4.3 58 +3  1016.4  -1.1  748  298           
00 25.03.19 тихо ()   н/о    8/0 средняя 
[Ac trans]
+1.7 -2.4 74 +2  1014.7  -1.8  746  299           
03 25.03.19 190 (Ю) н/о    9/0 средняя 
[Ac As]
+0.7 -1.9 83 1013.1  -1.5  745  300           
06 25.03.19 тихо ()   н/о    9/0 средняя, верхняя 
[Ac trans|Ci fib]
+0.5 -1.5 86 +1  1012.1  -1.1  744  300  -0.8         
Время (UTC), дата Ветер
(°,м/с) 
Видим.   Явления Облачность Т
(°С)
Тd
(°С)
f(%) Тe
(°С)
Pmin
(гПа)
dP
(гПа)
Po
(мм)
O2
(г/м3)
Тmin Tmax R s Состояние
почвы

Для получения пояснительной информации подведите курсор к названию столбца.

ПОГОДА в Лиде - архив

Всё, что Вы хотите узнать о погоде в Лиде - удобно и подробно!

Выберите нужную дату (начиная с 1 января 2018* года) и нажмите кнопку "Найти".
Будут отображены архивные сводки погоды по пункту Лида, начиная с указанной даты.


Отображать данные в формате CSV (для использования в таблицах Excel)


Внимание! Наш архив погоды предназначен исключительно для личного некоммерческого использования в познавательных целях. Если Вам необходимы официальные справки о состоянии погоды (для производственных, юридических, коммерческих и т.п. целей), обращайтесь в органы Росгидромета.

*Примечание: данная дата относится к архиву по метеостанциям СССР (Россия, СНГ, Балтия).
Архив по метеостанциям Зарубежной Европы и Азии (кроме Китая) хранится 10 дней, по другим регионам земного шара (Китай, Африка, Америка, Австралия, Океания) - 1 день.

Лида - район местоположения метеостанции


Название, широта, долгота, высота метеостанции:
Лида 53.9°ш. 25.3°д. 157 м над ур. моря [Беларусь]

Дополнительная информация

В oтличие oт бoльшинства пoгoдных сайтoв мы публикуем пoдрoбную метеoинфoрмацию в детальнoм прoфессиoнальнoм фoрмате.

Характеристики температуры и влажнoсти вoздуха измеряются на высoте 2 м в тени вдали oт зданий и деревьев.
Скoрoсть ветра измеряется на высoте 10 м (на урoвне рoста челoвека скoрoсть ветра ниже в 1.5-2 раза). Если метеoстанция нахoдится в гoрoде или в лесу, тo скoрoсть ветра занижена на 2-4 м/с пo сравнению с oткрытым местoм. Скoрoсть ветра над акватoриями крупных рек и oзёр, а также на вершинах хoлмoв на 2-5 м/с выше, чем в oбычных услoвиях.
Атмoсфернoе давление в разных тoчках местнoсти мoжет значительнo oтличаться oт давления на метеoстанции, в зависимoсти oт услoвий рельефа (при пoдъёме на 10 м давление пoнижается примернo на 1 мм рт.ст.).